Laramie, WY

3:15 PM MST on December 08, 2016 (GMT -0700)
Laramie Regional

Weather History for KLAR - January, 2013

Change the Weather History Date:

Saturday, January 5, 2013

  Actual Average Record
Temperature  
Mean Temperature 1 °F 22 °F  
Max Temperature 14 °F 33 °F 55 °F (1956)
Min Temperature -12 °F 10 °F -19 °F (1971)
Degree Days  
Heating Degree Days 64 43  
Month to date heating degree days 309 216  
Since 1 July heating degree days 3454 3889  
Cooling Degree Days 0 0  
Month to date cooling degree days 0 0  
Year to date cooling degree days 0 0  
Moisture  
Dew Point -6 °F    
Average Humidity 71    
Maximum Humidity 83    
Minimum Humidity 58    
Precipitation  
Precipitation 0.00 in 0.01 in 0.08 in (1974)
Month to date precipitation T 0.04  
Year to date precipitation T 0.04  
Sea Level Pressure  
Sea Level Pressure 30.52 in    
Wind  
Wind Speed 4 mph (South)    
Max Wind Speed 14 mph    
Max Gust Speed 16 mph    
Visibility 10 miles    
Events      
T = Trace of Precipitation, MM = Missing Value Source: NWS Daily Summary

Daily Weather History Graph

Daily Weather History Graph

Search for Another Location

Airport or City:

Trip Planner

Search our weather history database for the weather conditions in past years. The results will help you decide how hot, cold, wet, or windy it might be!

Date:

Astronomy

Jan. 05, 2013 Rise Set
Actual Time 7:28 AM MST 4:48 PM MST
Civil Twilight 6:57 AM MST 5:19 PM MST
Nautical Twilight 6:23 AM MST 5:53 PM MST
Astronomical Twilight 5:49 AM MST 6:27 PM MST
Moon 12:35 AM MST (1/5) 11:41 AM MST (1/5)
Length of Visible Light 10h 21m
Length of Day
9h 19m
Last Quarter, 43% of the Moon is Illuminated
Jan 5
Last Quarter
Jan 11
New
Jan 18
First Quarter
Jan 26
Full
Feb 3
Last Quarter

Hourly Weather History & Observations

Time (MST) Temp. Windchill Dew Point Humidity Pressure Visibility Wind Dir Wind Speed Gust Speed Precip Events Conditions
12:53 AM -6.0 °F -14.7 °F -9.0 °F 87% 30.39 in 10.0 mi SW 3.5 mph - N/A   Clear
1:53 AM -8.0 °F -19.2 °F -11.9 °F 83% 30.40 in 10.0 mi WSW 4.6 mph - N/A   Clear
2:53 AM -9.0 °F - -13.0 °F 83% 30.42 in 10.0 mi Calm Calm - N/A   Clear
3:53 AM -9.9 °F -23.4 °F -14.1 °F 82% 30.43 in 10.0 mi WSW 5.8 mph - N/A   Clear
4:53 AM -4.0 °F -14.6 °F -11.0 °F 72% 30.46 in 10.0 mi North 4.6 mph - N/A   Clear
5:53 AM -7.1 °F - -11.9 °F 79% 30.45 in 10.0 mi Calm Calm - N/A   Clear
6:53 AM -11.9 °F -21.5 °F -16.1 °F 82% 30.53 in 10.0 mi NE 3.5 mph - N/A   Clear
7:53 AM -2.0 °F -12.2 °F -8.0 °F 76% 30.50 in 10.0 mi North 4.6 mph - N/A   Clear
8:53 AM 1.0 °F -8.7 °F -6.0 °F 72% 30.52 in 10.0 mi North 4.6 mph - N/A   Clear
9:53 AM 5.0 °F -4.1 °F -4.0 °F 66% 30.49 in 10.0 mi NNE 4.6 mph - N/A   Clear
10:53 AM 3.9 °F -13.0 °F -4.0 °F 70% 30.58 in 10.0 mi North 12.7 mph - N/A   Clear
11:53 AM 12.0 °F 4.1 °F -0.0 °F 59% 30.54 in 10.0 mi NE 4.6 mph - N/A   Clear
12:53 PM 7.0 °F - -0.9 °F 70% 30.54 in 10.0 mi Calm Calm - N/A   Clear
1:53 PM 10.9 °F - 1.9 °F 67% 30.53 in 10.0 mi Calm Calm - N/A   Clear
2:53 PM 12.0 °F 4.1 °F 3.0 °F 67% 30.54 in 10.0 mi South 4.6 mph - N/A   Clear
3:53 PM 12.9 °F 6.9 °F 1.9 °F 62% 30.55 in 10.0 mi South 3.5 mph - N/A   Clear
4:53 PM 7.0 °F - -0.0 °F 73% 30.56 in 10.0 mi Calm Calm - N/A   Clear
5:53 PM 3.9 °F -3.4 °F -2.0 °F 76% 30.62 in 10.0 mi West 3.5 mph - N/A   Clear
6:53 PM 5.0 °F -8.1 °F -2.0 °F 73% 30.64 in 10.0 mi South 8.1 mph - N/A   Clear
7:53 PM -0.9 °F - -7.1 °F 75% 30.61 in 10.0 mi Calm Calm - N/A   Clear
8:53 PM 1.9 °F -12.9 °F -6.0 °F 69% 30.57 in 10.0 mi South 9.2 mph - N/A   Clear
9:53 PM 6.1 °F -4.3 °F -4.0 °F 63% 30.54 in 10.0 mi South 5.8 mph - N/A   Clear
10:53 PM 5.0 °F -6.9 °F -6.0 °F 61% 30.54 in 10.0 mi SE 6.9 mph - N/A   Clear
11:53 PM 3.9 °F -10.4 °F -6.0 °F 64% 30.49 in 10.0 mi SSE 9.2 mph - N/A   Clear